Starlink 33802

operational
NORAD ID: 64392 Int'l Des: 2025-127 Owner: SPXS Country: US Constellation: starlink
LEOCIRCULAR

About Starlink 33802

Description loading...

Live Position

Loading 3D Globe...

Upcoming Passes

Altitude History

Altitude vs Time

uPlot chart will show altitude changes over time

Two-Line Element Set

1 64392U 25127Y 26061.43446768 .00032847 00000-0 11977-2 0 9999
2 64392 43.0038 221.0930 0001662 261.8725 98.1939 15.27584719 41404
Epoch: Mar 2, 2026 • Age: 40 hours

Current Status

Altitude 491.3 km
Velocity 7.62 km/s
Sub-Earth Point -33.50°S, 42.3°E
Launch Date Jun 13, 2025
Age 0.7 years
Type internet

Technical Details

Classification Payload
Mass 575.00 kg
Dry Mass 530.00 kg
Total Mass 575.00 kg
Length 0.30 m
Diameter 4.10 m
Span 29.00 m
Shape Box + pan
Manufacturer SPXS
Bus Type Starlink V2MO
Phase Status In Orbit
Owner/State SPXS/US

Large Constellations

Loading constellations...